Location: Arcueil
(48.7999°N, 2.3326°E)
Time: 22:09:15
(UTC+00:00)

Daily predictions for brighter satellites

Satellite Brightness Start Highest point End
(mag) Time Altitude Azimuth Time Altitude Azimuth Time Altitude Azimuth
Cosmos 1656 3.8 16:24:37 10° NNW 16:30:12 86° WSW 16:35:48 10° SSE
Cosmos 1933 4.4 16:30:26 10° SE 16:33:48 26° E 16:37:11 10° NNE
USA 229 DEB 3.9 16:27:36 10° NW 16:34:54 79° NE 16:42:41 10° SE
USA 229 3.9 16:27:41 10° NW 16:34:59 79° NE 16:42:46 10° SE
Cosmos 1464 Rocket 4.1 16:29:21 10° S 16:35:43 81° E 16:42:08 10° N
Cosmos 1937 Rocket 3.8 16:31:24 10° NNW 16:36:32 45° ENE 16:41:36 10° SE
Cosmos 1500 Rocket 3.6 16:35:11 10° N 16:39:36 57° ENE 16:43:55 10° SSE
Cosmos 1666 4.4 16:37:49 10° NE 16:39:38 13° ENE 16:41:27 10° E
Spot 1 4.4 16:35:13 10° NNE 16:39:54 64° ESE 16:44:47 10° S
Nadezhda 4 Rocket 4.0 16:35:03 10° N 16:41:25 78° E 16:47:45 10° SSE
SL-24 R/B - RUBIN 2 4.1 16:37:27 10° NNW 16:41:51 39° NE 16:45:57 10° ESE
SeaSat 1 3.9 16:38:06 10° NNE 16:42:28 32° NW 16:46:49 10° WSW
Cosmos 2322 Rocket 3.9 16:39:45 10° N 16:42:49 14° NNE 16:45:53 10° ENE
ATLAS 2AS CENTAUR R/B 4.1 16:36:15 10° WNW 16:42:56 30° NNW 16:49:21 10° NE
Cosmos 990 Rocket 4.0 16:38:19 10° NNW 16:43:34 86° ENE 16:48:43 10° SSE
Cosmos 1697 Rocket 2.7 16:40:13 10° NNW 16:45:51 68° ENE 16:51:26 10° SE
FengYun 1-2 T 4.2 16:41:04 10° SSE 16:46:37 70° ENE 16:52:08 10° N
Cosmos 1271 Rocket 4.4 16:44:10 10° SW 16:47:49 35° WNW 16:51:31 10° N
Sich 1 3.6 16:45:19 10° N 16:49:15 34° ENE 16:53:12 10° SE
NOAA 6 4.1 16:44:58 10° SSE 16:50:00 59° ENE 16:55:04 10° N
Cosmos 1980 Rocket 2.6 16:44:39 10° NNW 16:50:04 42° NE 16:55:24 10° ESE
Cosmos 1805 Rocket 3.8 16:47:07 10° N 16:51:19 45° ENE 16:55:28 10° SSE
Cosmos 2221 2.8 16:47:40 10° SSW 16:51:56 71° W 16:56:15 10° N
Cosmos 2369 3.9 16:46:25 10° NNW 16:52:04 53° NE 16:57:39 10° SE
CZ-4C R/B 3.1 16:49:32 10° NW 16:56:14 51° NE 17:04:08 10° ESE
USA 234 3.3 16:49:42 10° ESE 16:56:15 88° NE 17:02:50 10° NW
Cosmos 1842 Rocket 3.8 16:52:21 10° SSW 16:56:48 74° W 17:01:19 10° N
Cosmos 1092 Rocket 4.0 16:50:59 10° N 16:57:18 63° ENE 17:03:34 10° SSE
Cosmos 2084 4.1 16:53:52 10° NW 16:58:06 60° SW 17:02:30 10° SSE
NOSS 3-1 (A) 4.3 16:51:02 10° NW 16:58:28 78° SW 17:07:12 10° SSE
USA 306 3.6 16:56:24 10° WNW 17:00:26 40° N 17:03:35 15° ENE
Cosmos 1812 4.1 16:58:03 10° SE 17:00:51 20° E 17:02:43 14° NE
SL-16 R/B 3.5 16:56:52 10° N 17:01:04 21° NE 17:04:15 14° E
ISS -3.8 16:58:29 10° WNW 17:01:53 77° NNE 17:04:59 12° ESE
Meteor 1-25 Rocket 4.1 16:57:26 10° N 17:03:02 78° ENE 17:08:38 10° SSE
NOSS 2-2 (D) 4.2 16:59:10 10° NW 17:04:05 64° NE 17:10:57 10° SE
NOSS 2-2 (E) 4.3 16:59:20 10° NW 17:04:26 75° NE 17:11:39 10° SE
deb Chang Zheng 4 4.4 17:01:52 10° ESE 17:05:32 28° ENE 17:09:13 10° N
SMAP 3.0 17:01:19 10° SSE 17:05:58 80° ENE 17:10:39 10° NNW
Cosmos 2082 Rocket 2.9 17:01:22 10° SSE 17:06:24 34° ESE 17:10:43 13° NE
Cosmos 1939 Rocket 2.9 17:03:05 10° SSE 17:07:12 89° ENE 17:11:18 10° NNW
CORIOLIS 4.1 17:03:34 10° SSE 17:08:57 77° ENE 17:14:24 10° NNW
Cosmos 858 Rocket 4.5 17:03:46 10° NNW 17:09:05 72° ENE 17:14:21 10° SSE
Cosmos 2333 Rocket 4.2 17:09:35 10° N 17:11:09 11° NNE 17:12:25 10° NE
Cosmos 44 Rocket 4.1 17:06:48 10° NNW 17:11:14 31° NE 17:14:23 16° E
CZ-4B DEB 4.1 17:09:50 10° SSE 17:15:20 75° ENE 17:20:50 10° NNW
Cosmos 2278 3.9 17:10:34 10° NNW 17:16:06 48° NE 17:21:35 10° SE
Cosmos 1602 3.6 17:12:41 10° N 17:16:34 83° E 17:20:26 10° S
Cosmos 1627 Rocket 4.4 17:12:35 10° N 17:18:48 76° E 17:24:55 10° SSE
USA 307 3.6 17:15:11 10° WNW 17:19:16 40° N 17:21:38 21° ENE
AQUARIUS 4.2 17:15:24 10° SSE 17:19:53 88° WSW 17:24:25 10° NNW
Cosmos 540 Rocket 3.4 17:16:17 10° S 17:21:19 65° ESE 17:26:07 12° NNE
Cosmos 2034 Rocket 4.4 17:16:38 10° SSW 17:22:43 67° WNW 17:28:53 10° N
ARGOS 3.5 17:20:29 10° SE 17:25:33 43° ENE 17:30:38 10° N
COSMO-SKYMED 1 3.3 17:23:24 19° NE 17:25:46 31° E 17:29:37 10° SSE
Cosmos 2279 Rocket 4.3 17:20:39 10° SSE 17:26:28 44° E 17:32:18 10° NNE
COSMOS 2406 3.2 17:21:14 10° SSW 17:26:58 76° ESE 17:32:09 13° NNE
Cosmos 1833 Rocket 2.7 17:22:39 10° SSW 17:28:17 85° WNW 17:33:42 11° NNE
Cosmos 1782 2.7 17:25:49 10° S 17:29:46 68° E 17:33:45 10° NNE
Meteor 2-21 4.3 17:23:40 10° N 17:29:49 82° E 17:35:51 10° SSE
Cosmos 1814 Rocket 4.5 17:26:08 10° S 17:30:56 39° ESE 17:33:44 22° NE
ATLAS 5 CENTAUR R/B 2.8 17:23:06 10° NW 17:31:34 42° NNE 17:33:08 28° ENE
Cosmos 1633 Rocket 3.3 17:30:16 10° N 17:34:30 46° ENE 17:38:43 10° SSE
ATLAS CENTAUR R/B 3.8 17:32:31 10° NW 17:35:05 15° NNW 17:37:45 10° NNE
Cosmos 1818 3.9 17:30:07 10° NNW 17:35:25 46° NE 17:38:50 21° ESE
Cosmos 468 Rocket 4.4 17:30:52 10° SW 17:35:59 62° WNW 17:41:11 10° NNE
Cosmos 2219 Rocket 4.1 17:34:25 10° N 17:36:25 12° NNE 17:36:27 12° NNE
YAOGAN 1 4.0 17:39:35 21° NNE 17:39:35 21° NNE 17:41:36 10° N
ERBS 4.0 17:37:55 10° WNW 17:40:24 20° N 17:41:01 19° N
GEOS 3 Rocket 4.0 17:37:58 24° E 17:40:40 42° NE 17:45:32 10° NNW
CZ-2D R/B 3.3 17:36:51 10° S 17:40:41 82° WSW 17:44:31 10° NNW
USA 308 3.5 17:37:49 10° WNW 17:41:52 41° N 17:43:14 31° NE
Cosmos 1634 Rocket 4.0 17:37:01 10° S 17:43:21 88° E 17:49:44 10° N
SJ-11-01 4.3 17:38:48 10° SSE 17:43:26 56° ENE 17:48:06 10° N
COSMOS 2455 2.8 17:38:14 10° SSW 17:44:12 71° ESE 17:48:14 22° NE
PAYLOAD B 4.3 17:39:33 10° SSE 17:45:10 82° WSW 17:50:49 10° NNW
CZ-2C R/B 2.7 17:40:35 12° NNE 17:45:15 51° E 17:50:16 10° S
Cosmos 1500 3.4 17:42:21 10° NNW 17:46:05 69° W 17:49:47 10° S
Cosmos 2026 Rocket 4.2 17:41:28 10° NNW 17:47:34 71° W 17:53:36 10° S
CZ-4B R/B 3.0 17:42:17 10° SSE 17:47:41 77° ENE 17:53:02 10° NNW
Cosmos 1151 Rocket 3.0 17:44:33 10° S 17:48:48 60° E 17:51:27 22° NNE
Lacrosse 5 rocket 1.5 17:46:06 10° NW 17:49:54 49° NNE 17:50:36 43° ENE
Okean O Rocket 1.5 17:47:20 10° SSE 17:51:44 65° ENE 17:56:10 10° N
CZ-4 R/B 3.7 17:59:40 11° N 17:59:40 11° N 17:59:55 10° N
Cosmos 2208 Rocket 4.3 17:54:54 10° S 18:00:04 49° ESE 18:01:39 37° ENE
Cosmos 1666 Rocket 3.6 17:55:54 10° NNW 18:00:22 82° W 18:04:47 10° S
CZ-4 R/B 4.3 17:56:57 10° SSE 18:01:04 75° ENE 18:05:12 10° N
Meteor 1-11 Rocket 4.0 17:57:02 10° N 18:02:24 44° ENE 18:05:45 22° SE
Meteor 1-10 Rocket 4.5 17:57:43 10° SSE 18:03:11 45° E 18:04:52 35° NE
Cosmos 1470 Rocket 3.6 17:59:12 10° N 18:03:36 54° ENE 18:07:59 10° SSE
Cosmos 2150 Rocket 4.1 17:58:39 10° NNW 18:03:41 48° ENE 18:04:48 41° E
H-2A R/B 2.5 17:58:47 10° S 18:03:54 62° WSW 18:08:55 10° NNW
USA 267 3.4 18:01:04 27° NE 18:04:46 66° NNW 18:11:14 10° WSW
Cosmos 1655 Rocket 4.0 17:59:19 10° N 18:05:40 58° ENE 18:11:55 10° SSE
Cosmos 1328 Rocket 3.5 18:01:56 10° S 18:06:19 65° E 18:07:31 45° NE
Cosmos 2360 Rocket 3.3 18:03:17 10° NNW 18:07:09 26° NNE 18:07:09 26° NNE
Landsat 5 3.5 18:08:41 56° ESE 18:08:41 56° ESE 18:12:19 10° S
USA 305 3.3 18:04:30 10° WNW 18:08:37 46° NNE 18:08:46 46° NNE
SKYMED 2 3.5 18:12:00 32° NNE 18:13:59 88° WNW 18:18:20 10° SSW
Cosmos 2180 Rocket 4.4 18:08:49 10° S 18:15:08 77° E 18:21:26 10° NNE
Cosmos 841 Rocket 3.9 18:10:25 10° SW 18:15:31 60° WNW 18:18:54 21° NNE
Cosmos 1666 3.2 18:11:53 10° NNW 18:15:33 57° W 18:19:10 10° S
Feng Yun 1-1 Rocket 4.2 18:11:15 10° SSE 18:17:09 74° ENE 18:23:00 10° NNW
Meteor 2-8 Rocket 4.3 18:12:34 10° S 18:18:43 79° E 18:24:54 10° NNE
ATLAS CENTAUR R/B 2.6 18:11:48 10° WSW 18:19:46 59° NW 18:20:43 47° NNE
Cosmos 1125 Rocket 3.4 18:16:36 10° NNW 18:21:49 62° ENE 18:22:14 60° E
Cosmos 2322 Rocket 2.4 18:22:43 10° NNW 18:27:49 50° NE 18:27:49 50° NE
Cosmos 1980 Rocket 3.6 18:28:50 10° NW 18:34:01 37° WSW 18:39:08 10° S
SL-08 RB Rocket 3.9 18:30:24 10° S 18:35:02 71° WSW 18:39:39 10° NNW
ATLAS 2AS CENTAUR R/B 4.0 18:30:03 10° NW 18:36:17 26° N 18:37:27 25° NNE
Cosmos 1812 4.2 18:32:47 10° SW 18:36:21 36° WNW 18:37:47 26° NNW
ISS -1.7 18:35:33 10° W 18:37:59 26° SW 18:37:59 26° SW
USA 306 3.9 18:36:38 10° WNW 18:39:35 39° NW 18:39:35 39° NW
CZ-4C R/B 3.5 18:38:01 10° NW 18:45:08 58° WSW 18:53:21 10° SSE
SL-16 R/B 2.0 18:40:20 10° NNW 18:46:03 85° ENE 18:46:11 83° E
Cosmos 2082 Rocket 3.0 18:44:53 10° SW 18:50:20 47° NW 18:52:35 31° N
Cosmos 44 Rocket 3.7 18:48:14 10° NW 18:53:04 57° WSW 18:53:09 57° SW
Cosmos 2333 Rocket 3.9 18:52:11 10° NNW 18:54:27 21° N 18:54:27 21° N
COSMO-SKYMED 1 4.3 19:00:37 26° NW 19:01:53 31° WNW 19:05:43 10° SW
GEOS 3 Rocket 4.4 19:19:06 49° WSW 19:19:06 49° WSW 19:23:43 10° NW
Cosmos 2219 Rocket 4.3 19:16:50 10° NNW 19:18:11 17° N 19:18:11 17° N
CZ-2C R/B 4.5 19:22:06 15° NNW 19:25:16 26° WNW 19:29:29 10° WSW
Okean O Rocket 4.5 19:25:47 10° SW 19:28:31 16° W 19:31:17 10° NW
Lacrosse 5 rocket 4.1 19:25:15 10° WNW 19:26:12 16° WNW 19:26:12 16° WNW
COSMOS 2455 4.2 19:25:22 10° W 19:30:40 31° NW 19:31:23 30° NNW
BREEZE-M DEB (TANK) 4.4 19:26:52 10° SW 19:44:57 69° SSW 19:44:57 69° SSW
USA 267 4.2 19:48:25 41° NNW 19:48:25 41° NNW 19:53:24 10° WNW
Cosmos 2360 Rocket 4.1 19:46:56 10° NNW 19:48:56 23° NW 19:48:56 23° NW
Cosmos 2322 Rocket 4.3 20:07:10 10° NW 20:09:40 22° WNW 20:09:40 22° WNW
